Terug naar catalogus

INTELSAT 2

PAS 2

ActiefCommunicatieGEO
NORAD 23175·PAYLOAD·🇺🇸 United States

Gelanceerd Jul 8, 1994 vanaf Guiana Space Centre

Loading…

TLE

VersSource: Space-Track

Epoch: Sep 14, 2026, 06:48 UTC

1 23175U 94040A   26257.28378207 -.00000178  00000-0  00000-0 0  9991
2 23175  12.3735  33.8223 0003202 111.1238 243.7992  0.99192236116528

Volg INTELSAT 2 in realtime met AllMySat

Download on the App Store